AMSAT ECHO

Satellite information

Favourite Embed

Satellite Type and Status

PAYLOADIN ORBIT

Key statistics

Satellite AMSAT ECHO at a glance.

Uptime

7783

Days in orbit

Revolutions

≈ 14.4

Per day

Orbit

SSO

Sun Synchronous Orbit

Inclination

98.6

Latest

Satellite identification and parameters

Extended collection of information and parameters for AMSAT ECHO.

Object identification

Identified? True

Debris? False

Object name: AMSAT ECHO

International designator: 2004-025K

Object number (NORAD): 28375

Object ID (CCSDS): 28375

Country: UNITED STATES OF AMERICA (US)

Current information (Y/N): Y

RCS size: SMALL

Orbital parameters

Period: 99.746 minutes

Inclination: 98.6262 deg

SMA: 7124.554 km

Apoapsis: 804.373 km

Periapsis: 688.465 km

RAAN: 247.0657 deg

Eccentricy: 0.00813438

Argument of periapsis: 121.5244 deg

Mean anomaly: 239.3924 deg

Mean motion: 14.43664294 rev/day

Mean motion (dot): 0.00000511 rev/day2

B* drag term: 0.00015796586 1/REarth

Two-line elements (TLE)

Creation date: Oct. 19, 2025, 2:20 a.m.

Reference frame: TEME

Reference center: EARTH

Epoch: Oct. 18, 2025, 9:40 p.m. UTC

TLE line 0: 0 AMSAT ECHO

TLE line 1: 1 28375U 04025K 25291.90284094 .00000511 00000-0 15797-3 0 9990

TLE line 2: 2 28375 98.6262 247.0657 0081344 121.5244 239.3924 14.43664294120761

Live tracking on map

Real-time ground track for satellite AMSAT ECHO.

In-orbit conjunctions

There are no conjunctions computed for AMSAT ECHO, at the moment. Check back to stay up to date, as we update our databases every day.

Go to all conjunctions

Associated space launch

AprizeSat, is a constellation of small Low-Earth-Orbit satellites (64 satellites planned) to achieve a global communication system of data transmission and fixed and mobile asset tracking and monitoring (GMPCS).

AMSAT ECHO was lifted into orbit during the mission ‘Dnepr | Aprizesat-2’, on board a Dnepr space rocket.

The launch took place on June 29, 2004, 6:30 a.m. from 109/95.

For more information about the launch, click the button.

Launch to space Dnepr | Aprizesat-2
Dnepr | Aprizesat-2

Agency: N/A

Status: Launch Successful

Launch date: June 29, 2004, 6:30 a.m. UTC

Rocket: Dnepr

Launch pad: 109/95

Location: Baikonur Cosmodrome, Republic of Kazakhstan

...

Latest news about this satellite

There are no fresh news available about this satellite. Check back as we update our databases every day.


Newsletter sign-up

Weekly statistics, charts and insights to help you stay on top of the space industry.